When you browse on this site, cookies collect data to enhance your experience and personalize the content and advertising you see.
Visit our Privacy Policy to learn more. By continuing to use the site, you agree to this use of cookies and data.
  • In Romania
  • List of Countries
  • For 7 days
  • Water Temperature
  • Weather Map
  • Weather Widgets
  • user-avatar
    Login

    Hourly Weather Caracas

    Today, 24 August, Saturday

    Time Temperature Precipitation Wind Pressure Humidity
    00:00 +17°C° 0 mm 2 mps 650 mmHg 90%
    01:00 +17°C° 0 mm 2 mps 650 mmHg 90%
    02:00 +17°C° 0 mm 2 mps 649 mmHg 90%
    03:00 +18°C° 0 mm 1 mps 649 mmHg 89%
    04:00 +18°C° 0 mm 1 mps 649 mmHg 89%
    05:00 +18°C° 0 mm 1 mps 650 mmHg 89%
    06:00 +19°C° 0 mm 1 mps 650 mmHg 86%
    07:00 +20°C° 0 mm 1 mps 651 mmHg 84%
    08:00 +21°C° 0 mm 1 mps 651 mmHg 81%
    09:00 +22°C° 0.1 mm 1 mps 652 mmHg 74%
    10:00 +24°C° 0.1 mm 1 mps 652 mmHg 68%
    11:00 +25°C° 0.1 mm 2 mps 652 mmHg 61%
    12:00 +25°C° 0.5 mm 2 mps 652 mmHg 65%
    13:00 +25°C° 0.5 mm 1 mps 651 mmHg 69%
    14:00 +25°C° 0.5 mm 1 mps 651 mmHg 72%
    15:00 +24°C° 0.9 mm 1 mps 650 mmHg 76%
    16:00 +24°C° 0.9 mm 1 mps 650 mmHg 80%
    17:00 +23°C° 0.9 mm 2 mps 649 mmHg 84%
    18:00 +21°C° 0.4 mm 2 mps 649 mmHg 86%
    19:00 +19°C° 0.4 mm 2 mps 649 mmHg 88%
    20:00 +18°C° 0.4 mm 3 mps 649 mmHg 91%
    21:00 +18°C° 0.2 mm 3 mps 650 mmHg 91%
    22:00 +17°C° 0.2 mm 3 mps 650 mmHg 91%
    23:00 +17°C° 0.2 mm 3 mps 650 mmHg 91%

    Tomorrow, 25 August, Sunday

    Time Temperature Precipitation Wind Pressure Humidity
    00:00 +17°C° 0 mm 2 mps 650 mmHg 91%
    01:00 +17°C° 0 mm 2 mps 649 mmHg 91%
    02:00 +17°C° 0 mm 2 mps 649 mmHg 90%
    03:00 +17°C° 0 mm 2 mps 649 mmHg 90%
    04:00 +17°C° 0 mm 2 mps 649 mmHg 90%
    05:00 +18°C° 0 mm 1 mps 649 mmHg 90%
    06:00 +17°C° 0 mm 2 mps 649 mmHg 88%
    07:00 +18°C° 0 mm 2 mps 650 mmHg 86%
    08:00 +19°C° 0 mm 2 mps 650 mmHg 85%
    09:00 +21°C° 0 mm 2 mps 651 mmHg 76%
    10:00 +24°C° 0 mm 2 mps 652 mmHg 68%
    11:00 +26°C° 0 mm 3 mps 652 mmHg 59%
    12:00 +26°C° 0.1 mm 3 mps 652 mmHg 59%
    13:00 +26°C° 0.1 mm 3 mps 651 mmHg 59%
    14:00 +26°C° 0.1 mm 3 mps 650 mmHg 59%
    15:00 +25°C° 0.3 mm 3 mps 650 mmHg 67%
    16:00 +24°C° 0.3 mm 3 mps 649 mmHg 74%
    17:00 +22°C° 0.3 mm 3 mps 649 mmHg 82%
    18:00 +21°C° 0.1 mm 3 mps 649 mmHg 84%
    19:00 +19°C° 0.1 mm 3 mps 649 mmHg 87%
    20:00 +18°C° 0.1 mm 3 mps 649 mmHg 90%
    21:00 +18°C° 0 mm 3 mps 649 mmHg 90%
    22:00 +17°C° 0 mm 2 mps 649 mmHg 91%
    23:00 +17°C° 0 mm 2 mps 650 mmHg 91%

    Day after tomorrow, 26 August, Monday

    Time Temperature Precipitation Wind Pressure Humidity
    00:00 +17°C° 0 mm 2 mps 649 mmHg 91%
    01:00 +17°C° 0 mm 2 mps 649 mmHg 92%
    02:00 +17°C° 0 mm 2 mps 649 mmHg 92%
    03:00 +17°C° 0 mm 2 mps 649 mmHg 92%
    04:00 +17°C° 0 mm 2 mps 649 mmHg 92%
    05:00 +17°C° 0 mm 2 mps 649 mmHg 92%
    06:00 +17°C° 0 mm 2 mps 649 mmHg 90%
    07:00 +18°C° 0 mm 2 mps 650 mmHg 87%
    08:00 +19°C° 0 mm 2 mps 650 mmHg 84%
    09:00 +21°C° 0 mm 2 mps 651 mmHg 75%
    10:00 +24°C° 0 mm 3 mps 651 mmHg 66%
    11:00 +25°C° 0 mm 3 mps 652 mmHg 57%
    12:00 +25°C° 0.1 mm 3 mps 651 mmHg 57%
    13:00 +26°C° 0.1 mm 3 mps 651 mmHg 56%
    14:00 +26°C° 0.1 mm 3 mps 651 mmHg 55%
    15:00 +25°C° 0.2 mm 3 mps 650 mmHg 63%
    16:00 +24°C° 0.2 mm 3 mps 649 mmHg 70%
    17:00 +22°C° 0.2 mm 3 mps 649 mmHg 78%
    18:00 +21°C° 0.1 mm 3 mps 649 mmHg 83%
    19:00 +19°C° 0.1 mm 3 mps 649 mmHg 88%
    20:00 +18°C° 0.1 mm 3 mps 649 mmHg 93%
    21:00 +18°C° 0 mm 3 mps 649 mmHg 93%
    22:00 +17°C° 0 mm 3 mps 649 mmHg 94%
    23:00 +17°C° 0 mm 2 mps 650 mmHg 94%

    27 August, Tuesday

    Time Temperature Precipitation Wind Pressure Humidity
    00:00 +17°C° 0 mm 2 mps 649 mmHg 93%
    01:00 +16°C° 0 mm 2 mps 649 mmHg 92%
    02:00 +16°C° 0 mm 2 mps 648 mmHg 91%
    03:00 +16°C° 0 mm 2 mps 648 mmHg 89%
    04:00 +16°C° 0 mm 2 mps 648 mmHg 88%
    05:00 +16°C° 0 mm 2 mps 648 mmHg 86%
    06:00 +17°C° 0 mm 2 mps 649 mmHg 84%
    07:00 +18°C° 0 mm 2 mps 650 mmHg 82%
    08:00 +19°C° 0 mm 2 mps 650 mmHg 80%
    09:00 +21°C° 0 mm 2 mps 651 mmHg 72%
    10:00 +24°C° 0 mm 2 mps 651 mmHg 65%
    11:00 +26°C° 0 mm 2 mps 652 mmHg 58%
    12:00 +26°C° 0.2 mm 2 mps 651 mmHg 59%
    13:00 +26°C° 0.2 mm 3 mps 651 mmHg 60%
    14:00 +26°C° 0.2 mm 3 mps 650 mmHg 61%
    15:00 +25°C° 0.4 mm 3 mps 649 mmHg 69%
    16:00 +24°C° 0.4 mm 3 mps 649 mmHg 77%
    17:00 +22°C° 0.4 mm 3 mps 648 mmHg 86%
    18:00 +20°C° 0.3 mm 3 mps 648 mmHg 89%
    19:00 +19°C° 0.3 mm 3 mps 648 mmHg 91%
    20:00 +18°C° 0.3 mm 3 mps 648 mmHg 94%
    21:00 +18°C° 0.1 mm 2 mps 649 mmHg 94%
    22:00 +18°C° 0.1 mm 2 mps 649 mmHg 94%
    23:00 +17°C° 0.1 mm 2 mps 649 mmHg 93%

    28 August, Wednesday

    Time Temperature Precipitation Wind Pressure Humidity
    00:00 +17°C° 0.1 mm 2 mps 649 mmHg 93%
    01:00 +17°C° 0.1 mm 2 mps 648 mmHg 92%
    02:00 +17°C° 0.1 mm 2 mps 648 mmHg 91%
    03:00 +17°C° 0 mm 2 mps 648 mmHg 90%
    04:00 +17°C° 0 mm 2 mps 648 mmHg 90%
    05:00 +17°C° 0 mm 2 mps 648 mmHg 90%
    06:00 +19°C° 0 mm 1 mps 649 mmHg 88%
    07:00 +20°C° 0 mm 1 mps 649 mmHg 86%
    08:00 +21°C° 0 mm 1 mps 650 mmHg 84%
    09:00 +22°C° 0.2 mm 1 mps 650 mmHg 78%
    10:00 +24°C° 0.2 mm 2 mps 651 mmHg 71%
    11:00 +26°C° 0.2 mm 2 mps 651 mmHg 64%
    12:00 +25°C° 0.8 mm 2 mps 651 mmHg 67%
    13:00 +25°C° 0.8 mm 2 mps 650 mmHg 71%
    14:00 +25°C° 0.8 mm 1 mps 649 mmHg 75%
    15:00 +24°C° 1.9 mm 2 mps 649 mmHg 80%
    16:00 +24°C° 1.9 mm 2 mps 648 mmHg 85%
    17:00 +23°C° 1.9 mm 2 mps 648 mmHg 89%
    18:00 +21°C° 0.8 mm 2 mps 648 mmHg 90%
    19:00 +20°C° 0.8 mm 2 mps 648 mmHg 90%
    20:00 +18°C° 0.8 mm 2 mps 648 mmHg 90%
    21:00 +18°C° 0.1 mm 2 mps 648 mmHg 90%
    22:00 +18°C° 0.1 mm 2 mps 649 mmHg 90%
    23:00 +18°C° 0.1 mm 2 mps 649 mmHg 90%

    29 August, Thursday

    Time Temperature Precipitation Wind Pressure Humidity
    00:00 +19°C° 0.1 mm 1 mps 649 mmHg 89%
    01:00 +19°C° 0.1 mm 1 mps 648 mmHg 88%
    02:00 +19°C° 0.1 mm 1 mps 648 mmHg 87%
    03:00 +19°C° 0 mm 1 mps 648 mmHg 85%
    04:00 +19°C° 0 mm 1 mps 648 mmHg 84%
    05:00 +19°C° 0 mm 1 mps 647 mmHg 82%
    06:00 +20°C° 0 mm 1 mps 648 mmHg 81%
    07:00 +20°C° 0 mm 1 mps 649 mmHg 79%
    08:00 +21°C° 0 mm 1 mps 649 mmHg 77%
    09:00 +22°C° 0 mm 1 mps 650 mmHg 71%
    10:00 +24°C° 0 mm 1 mps 650 mmHg 66%
    11:00 +25°C° 0 mm 2 mps 651 mmHg 60%
    12:00 +26°C° 0.1 mm 2 mps 650 mmHg 60%
    13:00 +26°C° 0.1 mm 2 mps 650 mmHg 59%
    14:00 +27°C° 0.1 mm 2 mps 649 mmHg 59%
    15:00 +25°C° 1.2 mm 1 mps 649 mmHg 68%
    16:00 +24°C° 1.2 mm 1 mps 648 mmHg 77%
    17:00 +23°C° 1.2 mm 1 mps 648 mmHg 86%
    18:00 +21°C° 0.5 mm 1 mps 648 mmHg 87%
    19:00 +20°C° 0.5 mm 1 mps 648 mmHg 88%
    20:00 +19°C° 0.5 mm 1 mps 648 mmHg 90%
    21:00 +19°C° 0.2 mm 1 mps 648 mmHg 89%
    22:00 +19°C° 0.2 mm 1 mps 649 mmHg 89%
    23:00 +19°C° 0.2 mm 1 mps 649 mmHg 88%
    Show more